Temp
15 15 15 14 14 14 13 12 12 11 11 10 10 10 10 9 10 9 9 9 8 9 9 8 9 9 9 9 9 9 9 9 8 9 9 9 8 9 9 8 9 9 10
15 15 15 14 13 13 12 11 11 11 11 11 11 10 11 10 10 10 9 8 8 8 8 8 8 8 8 8 9 9 8 9 8 9 9 9 8 7 8 7 9 9 10
15 15 14 14 14 13 13 11 11 10 9 8 9 10 9 10 9 10 9 8 8 8 8 8 8 8 8 8 9 8 8 8 8 9 8 8 8 8 8 9 9 10 9
14 15 14 13 12 12 11 11 11 10 9 6 11 9 9 10 10 10 10 8 8 8 7 7 8 8 8 8 8 8 8 7 7 7 7 8 8 8 8 9 9 10 10
14 14 14 13 13 13 12 12 11 10 9 10 9 8 8 9 10 10 10 8 7 7 7 7 7 7 7 7 7 7 8 7 6 6 7 7 8 8 9 9 9 9 9
14 14 13 13 13 13 12 11 11 10 10 7 8 7 7 9 9 9 8 7 7 6 6 7 7 7 7 7 7 7 7 7 7 7 7 7 7 7 7 8 8 9 9
12 12 12 12 12 12 11 10 9 10 8 8 8 7 8 9 8 8 8 7 7 6 7 7 7 7 7 6 6 6 7 7 7 6 6 7 6 6 7 7 8 8 9
13 12 11 11 11 11 11 9 10 11 9 9 6 7 8 8 8 8 8 7 8 7 7 7 7 6 6 6 6 7 7 6 6 5 5 5 5 5 6 6 7 7 8
11 10 10 10 9 10 10 10 9 10 9 9 7 8 8 8 8 8 8 7 8 8 8 7 7 7 7 7 6 6 7 7 6 6 5 5 5 5 5 6 7 6 6
10 9 9 9 9 8 9 10 9 9 10 9 8 7 8 8 8 8 7 7 7 7 7 7 7 7 7 7 7 6 6 6 6 6 6 6 6 6 6 6 6 6 6
9 8 8 9 9 8 7 8 8 9 8 8 7 7 7 8 8 7 7 7 7 7 7 6 6 6 6 6 6 6 6 6 6 6 6 6 6 6 6 7 7 7 7
9 8 6 7 8 6 7 6 6 6 6 6 7 6 6 7 7 6 7 7 7 6 6 6 6 6 6 6 6 6 6 6 6 6 5 5 5 5 5 6 6 6 6
8 8 7 7 6 6 6 6 6 6 6 6 6 6 6 6 6 6 6 6 6 6 5 5 6 6 5 5 5 6 5 5 5 5 6 5 5 5 5 5 5 5 5
7 7 7 6 5 5 6 5 5 5 5 5 5 5 5 6 5 5 5 5 5 5 5 5 5 5 4 4 5 5 5 5 5 4 4 4 4 5 4 5 5 4 4
4 6 6 6 5 5 5 5 2 3 4 4 4 4 5 5 5 5 5 4 4 4 4 4 4 4 3 3 3 3 3 3 3 3 3 3 4 3 3 3 3 4 4
4 4 5 4 2 3 3 3 1 1 2 3 3 4 4 4 4 4 4 4 4 3 4 4 2 2 2 2 1 1 1 1 1 1 2 2 2 2 2 2 2 2 2
4 4 3 -0 -0 -0 0 0 0 0 2 3 3 3 3 3 3 4 4 4 3 3 3 2 2 1 0 0 0 0 1 1 1 1 1 1 1 0 1 0 0 -0 -0
4 4 4 2 -1 0 0 -1 0 1 2 3 3 4 4 4 3 3 3 2 2 2 2 1 0 0 0 0 0 1 1 1 1 1 1 1 0 -0 -0 -1 -1 -1 -1
0 0 1 0 -0 -0 0 1 1 1 2 2 3 3 2 1 2 2 2 1 0 0 1 1 0 -0 -0 0 0 0 0 0 0 0 0 -0 -0 -1 -2 -3 -3 -4 -4
1 2 2 1 0 -1 -1 -1 -0 0 0 1 2 2 2 2 2 1 1 1 1 0 -0 -1 -1 -0 0 0 0 0 0 0 -0 -1 -1 -1 -1 -2 -2 -2 -3 -4 -4
-1 -1 -1 -1 -1 -1 -1 0 0 -1 1 2 2 2 2 1 1 1 0 0 0 -0 -0 -0 -0 -0 -0 0 0 0 -0 -1 -1 -1 -2 -2 -2 -3 -2 -3 -3 -3 -3
-1 -1 -1 -1 -1 -1 -1 -0 0 1 1 2 1 1 1 1 1 1 1 1 0 0 0 -0 -0 -0 -0 -0 -0 -1 -1 -1 -1 -2 -2 -3 -3 -3 -3 -4 -4 -4 -4
0 -0 -0 -0 -0 -0 0 1 1 2 2 2 1 1 1 2 1 1 1 0 -0 -1 -1 -1 -1 -0 -0 -1 -1 -1 -1 -1 -2 -2 -3 -3 -4 -4 -4 -4 -4 -4 -5
1 1 1 1 1 1 1 1 1 1 1 1 1 1 1 0 -0 -0 -0 -1 -1 -1 -1 -2 -1 -1 -1 -2 -2 -1 -2 -2 -2 -3 -3 -4 -4 -4 -4 -4 -5 -5 -5
0 1 1 1 1 1 1 1 0 -0 -0 -0 -0 -0 -1 -1 -1 -1 -2 -1 -1 -1 -1 -2 -3 -3 -3 -3 -3 -2 -3 -3 -3 -4 -4 -5 -5 -4 -4 -5 -5 -5 -5
-1 -0 -0 -0 -0 -0 -0 -0 -1 -1 -1 -1 -1 -1 -1 -1 -2 -2 -2 -2 -2 -1 -2 -2 -3 -3 -3 -3 -3 -3 -3 -3 -3 -4 -5 -5 -5 -4 -5 -4 -5 -5 -5
Height
3163 3162 3162 3162 3162 3161 3162 3162 3164 3164 3163 3163 3164 3163 3162 3161 3159 3156 3154 3152 3152 3154 3154 3154 3157 3158 3158 3158 3158 3158 3159 3159 3160 3162 3164 3168 3168 3170 3170 3170 3172 3174 3176
3157 3155 3154 3156 3157 3157 3159 3158 3155 3154 3155 3154 3153 3154 3154 3153 3150 3145 3139 3136 3139 3141 3145 3147 3149 3150 3151 3151 3152 3153 3153 3154 3155 3157 3158 3161 3164 3162 3163 3164 3166 3169 3172
3152 3150 3146 3147 3147 3148 3149 3150 3147 3145 3137 3143 3142 3145 3144 3145 3141 3135 3128 3123 3127 3130 3135 3138 3141 3142 3143 3146 3147 3147 3148 3149 3150 3151 3151 3154 3154 3156 3160 3161 3162 3163 3166
3141 3139 3137 3137 3138 3136 3136 3136 3133 3129 3116 3121 3137 3137 3136 3137 3132 3128 3123 3119 3118 3120 3123 3129 3134 3136 3136 3139 3141 3141 3142 3144 3146 3146 3148 3149 3153 3153 3152 3154 3156 3158 3159
3134 3132 3131 3129 3127 3125 3124 3125 3125 3122 3118 3122 3130 3130 3132 3130 3126 3122 3118 3114 3114 3116 3120 3123 3128 3131 3131 3132 3134 3136 3137 3138 3139 3138 3140 3143 3148 3148 3148 3149 3150 3151 3152
3128 3125 3123 3121 3122 3120 3116 3116 3117 3116 3114 3120 3124 3124 3125 3124 3122 3119 3116 3115 3115 3116 3118 3122 3124 3124 3126 3127 3127 3130 3132 3133 3134 3135 3137 3139 3140 3141 3142 3142 3143 3144 3145
3119 3118 3116 3115 3113 3112 3111 3111 3113 3104 3098 3109 3113 3114 3119 3118 3116 3115 3115 3114 3114 3116 3117 3117 3118 3119 3120 3122 3123 3123 3126 3127 3128 3129 3130 3132 3133 3134 3135 3135 3135 3136 3136
3110 3108 3106 3105 3103 3103 3103 3103 3103 3106 3106 3107 3106 3110 3112 3112 3114 3113 3114 3113 3112 3113 3114 3114 3114 3115 3115 3115 3119 3120 3122 3123 3123 3123 3124 3124 3125 3126 3126 3127 3127 3127 3127
3095 3094 3095 3095 3096 3095 3096 3096 3097 3103 3102 3101 3103 3105 3106 3108 3110 3110 3110 3111 3109 3108 3110 3109 3110 3112 3113 3111 3112 3114 3116 3116 3117 3118 3118 3118 3119 3119 3120 3119 3118 3118 3119
3082 3082 3085 3086 3086 3086 3087 3088 3089 3091 3091 3093 3097 3099 3102 3105 3105 3105 3106 3107 3106 3107 3108 3108 3109 3110 3110 3108 3109 3110 3110 3110 3110 3111 3110 3111 3111 3110 3111 3112 3112 3109 3108
3070 3070 3071 3074 3075 3074 3077 3078 3081 3084 3084 3085 3091 3095 3098 3100 3101 3103 3104 3105 3103 3105 3105 3104 3104 3104 3105 3104 3104 3103 3104 3105 3105 3104 3103 3102 3102 3102 3102 3101 3101 3101 3099
3058 3057 3060 3062 3064 3067 3069 3068 3070 3076 3079 3084 3086 3090 3094 3095 3097 3099 3098 3099 3099 3101 3101 3100 3099 3098 3098 3098 3097 3095 3096 3096 3096 3095 3095 3094 3094 3092 3092 3091 3090 3089 3088
3041 3045 3048 3051 3055 3058 3063 3065 3069 3073 3078 3082 3084 3086 3089 3089 3093 3093 3093 3094 3094 3095 3095 3095 3093 3093 3092 3092 3090 3089 3088 3089 3089 3089 3089 3088 3086 3084 3082 3081 3080 3077 3077
3024 3032 3038 3040 3044 3047 3050 3057 3061 3069 3075 3079 3081 3084 3085 3088 3089 3087 3087 3089 3090 3090 3089 3088 3087 3085 3088 3087 3084 3082 3081 3081 3080 3080 3078 3076 3075 3074 3072 3069 3068 3066 3065
3009 3021 3028 3032 3031 3029 3044 3050 3059 3067 3073 3078 3080 3081 3082 3083 3084 3082 3082 3084 3084 3084 3082 3082 3082 3080 3082 3080 3078 3075 3074 3073 3071 3072 3070 3068 3065 3063 3060 3057 3054 3053 3051
3006 3016 3021 3020 3022 3033 3041 3047 3056 3063 3070 3074 3076 3078 3078 3078 3079 3079 3078 3079 3078 3078 3078 3076 3076 3076 3075 3073 3072 3070 3068 3065 3065 3064 3061 3059 3056 3051 3047 3044 3042 3040 3040
3008 3011 3021 3026 3029 3035 3041 3051 3056 3066 3071 3074 3075 3075 3074 3075 3074 3075 3074 3074 3074 3073 3071 3070 3071 3072 3071 3069 3068 3065 3063 3063 3060 3057 3053 3050 3046 3041 3038 3034 3032 3030 3028
3019 3023 3026 3030 3036 3042 3046 3053 3058 3065 3068 3068 3070 3071 3071 3071 3070 3070 3069 3070 3071 3068 3066 3066 3066 3067 3066 3064 3062 3061 3059 3057 3056 3054 3048 3045 3039 3034 3030 3027 3024 3022 3020
3030 3033 3036 3037 3041 3045 3050 3054 3059 3062 3064 3065 3065 3067 3067 3067 3066 3065 3065 3066 3065 3064 3063 3063 3063 3063 3063 3062 3059 3057 3055 3054 3051 3048 3044 3040 3036 3031 3027 3023 3020 3018 3016
3039 3040 3042 3045 3047 3050 3053 3056 3058 3061 3063 3063 3062 3063 3064 3064 3063 3062 3061 3061 3062 3061 3061 3060 3060 3060 3058 3055 3053 3053 3051 3050 3047 3043 3040 3037 3034 3031 3027 3023 3019 3017 3015
3043 3045 3047 3051 3054 3057 3059 3059 3058 3060 3060 3059 3060 3061 3061 3060 3059 3059 3057 3057 3057 3057 3057 3057 3056 3056 3053 3051 3049 3049 3047 3043 3040 3038 3036 3033 3031 3029 3026 3022 3019 3016 3014
3052 3053 3054 3055 3057 3058 3058 3058 3057 3058 3057 3056 3058 3058 3058 3057 3056 3056 3054 3054 3055 3054 3054 3054 3054 3051 3050 3046 3044 3043 3041 3038 3035 3034 3032 3029 3027 3025 3023 3019 3016 3013 3010
3053 3053 3054 3055 3055 3056 3056 3056 3056 3056 3055 3056 3057 3057 3056 3055 3056 3056 3053 3052 3051 3052 3052 3050 3048 3045 3041 3041 3039 3037 3035 3033 3031 3029 3027 3024 3022 3019 3017 3014 3010 3006 3004
3054 3054 3055 3055 3055 3056 3055 3055 3055 3055 3056 3057 3056 3055 3054 3053 3052 3052 3050 3050 3050 3048 3045 3045 3043 3039 3036 3035 3033 3031 3030 3028 3025 3024 3022 3019 3017 3014 3011 3008 3005 3001 2998
3055 3054 3054 3055 3055 3054 3055 3054 3055 3056 3055 3054 3053 3051 3051 3052 3049 3048 3048 3046 3042 3044 3039 3037 3036 3034 3031 3029 3027 3025 3023 3020 3018 3015 3012 3010 3009 3007 3004 3001 2999 2996 2993
3054 3054 3054 3055 3055 3055 3054 3055 3055 3054 3052 3052 3052 3049 3047 3045 3045 3044 3042 3041 3039 3036 3032 3030 3028 3026 3024 3021 3020 3018 3015 3014 3011 3008 3005 3002 3000 2999 2997 2994 2991 2989 2986
Wind_Speed
25 23 24 23 21 19 19 20 20 21 24 23 23 25 28 30 33 37 41 43 42 37 32 24 26 27 27 26 25 21 21 23 20 16 22 24 29 30 26 37 43 42 35
18 20 24 27 27 25 22 23 25 28 29 29 20 26 30 37 36 39 42 48 41 37 33 28 26 24 24 26 26 23 22 24 21 21 18 18 19 29 25 24 32 33 41
23 29 24 23 26 29 34 29 33 35 35 26 29 25 26 32 36 35 30 28 34 38 37 30 27 27 25 26 24 25 26 24 19 21 20 22 27 26 27 26 27 30 31
30 32 30 24 25 28 32 36 40 45 48 17 18 26 26 29 31 27 24 15 32 39 36 29 29 25 24 25 24 25 22 21 23 22 28 25 27 26 28 28 29 28 29
33 37 36 34 29 31 32 35 40 42 31 10 21 22 25 25 21 16 16 16 12 29 32 32 34 30 25 24 23 22 24 21 20 21 24 22 30 31 29 29 30 31 31
33 34 32 34 39 38 32 31 31 40 63 29 30 22 24 19 13 11 13 14 12 8 11 16 18 20 26 23 22 18 19 23 23 24 26 26 25 30 33 33 33 34 33
29 26 26 29 30 28 26 27 25 24 25 37 24 21 21 13 12 12 13 12 11 18 20 27 32 27 29 27 27 18 24 21 24 25 27 29 31 32 33 35 37 38 38
31 30 32 31 26 27 28 26 15 18 16 20 20 19 14 8 10 11 13 12 11 11 11 9 5 8 11 10 11 15 19 22 25 26 27 29 28 29 31 34 36 37 38
35 35 34 32 28 28 27 29 24 25 22 16 18 16 12 11 12 14 13 12 10 9 11 10 10 12 15 14 14 14 18 20 20 22 27 30 33 32 32 32 34 36 37
40 41 36 33 34 31 30 25 22 23 24 18 18 15 13 13 12 12 11 12 11 11 13 13 13 13 14 14 16 17 19 21 23 25 25 28 31 30 37 38 38 39 40
44 40 37 36 36 23 27 28 25 27 21 18 17 15 14 12 11 11 11 11 10 13 14 14 15 16 17 19 21 22 24 26 27 29 30 31 33 34 35 37 38 38 39
44 41 34 32 29 25 21 20 23 21 18 18 16 16 15 12 12 12 13 13 14 15 16 17 18 19 21 22 23 24 26 27 29 30 31 33 35 36 37 38 40 41 42
44 41 33 26 32 36 24 21 22 19 19 18 16 14 13 11 12 12 13 14 15 16 18 19 19 20 22 23 23 24 25 27 29 31 34 36 37 38 39 40 40 41 41
41 40 30 25 25 26 31 29 25 23 21 17 14 13 11 11 11 12 13 13 14 15 15 15 15 16 17 17 18 19 22 24 27 29 31 33 35 38 40 42 41 42 42
35 27 24 31 40 41 29 26 20 19 17 14 13 11 11 11 12 11 11 11 11 10 10 11 13 14 14 15 16 17 19 22 24 28 31 34 37 39 40 41 41 42 43
25 25 38 30 22 23 25 27 23 18 16 14 12 10 9 9 9 9 8 9 11 11 13 14 14 14 14 15 15 16 17 18 21 24 27 32 36 39 40 40 40 39 39
37 33 25 24 23 23 21 18 16 13 11 9 8 6 6 6 8 9 10 11 11 12 14 13 12 11 11 12 13 14 15 17 18 21 23 26 30 32 35 35 34 34 32
13 11 23 22 20 20 17 11 6 4 5 4 4 7 8 9 9 9 11 12 12 13 12 12 12 12 13 14 15 16 18 19 21 22 24 27 28 27 24 23 23 21 22
18 18 17 19 18 13 9 7 6 5 4 4 6 9 9 8 10 12 13 10 8 10 12 13 13 13 14 16 17 17 18 20 21 21 22 24 26 25 22 17 15 15 15
22 19 16 12 11 10 6 4 1 1 4 5 6 8 8 10 12 14 14 11 11 12 15 15 15 17 16 17 18 20 22 21 19 20 20 21 21 20 19 19 18 15 14
14 13 10 6 3 1 2 3 4 6 6 6 6 9 9 8 10 10 10 11 12 12 15 16 19 20 18 18 20 21 21 21 21 20 19 19 19 19 18 17 16 16 15
4 3 2 2 3 4 6 6 5 5 6 7 8 8 7 8 8 10 12 13 11 14 15 17 20 19 19 19 20 21 21 20 19 20 21 20 21 23 23 22 21 20 20
1 2 4 6 6 4 2 2 4 5 5 4 5 7 6 7 9 9 8 9 10 10 12 14 17 19 19 20 20 19 20 19 19 20 22 23 25 27 27 26 25 25 24
2 2 2 2 1 0 2 3 4 5 5 5 6 7 9 10 11 12 11 12 13 13 13 16 18 19 19 20 20 20 20 21 23 25 26 23 23 25 27 24 22 23 24
1 1 1 1 1 1 0 1 1 3 4 3 4 6 12 12 9 11 13 15 15 17 17 20 25 22 23 24 26 25 28 32 34 35 32 27 25 23 23 22 23 24 25
4 6 6 5 3 3 4 4 5 6 6 6 8 11 12 13 12 15 14 13 20 22 20 23 24 18 24 26 29 24 30 31 35 33 33 31 30 32 26 29 28 29 28
Wind_Direction
278 270 253 254 257 261 260 251 249 248 248 250 259 266 271 280 285 284 282 276 262 259 253 244 249 252 263 266 265 266 262 258 250 252 243 233 237 244 240 240 239 239 249
291 282 271 252 255 256 248 242 242 243 248 249 257 266 275 278 281 286 285 269 258 246 243 242 242 250 259 260 262 264 259 258 260 259 239 226 225 235 237 237 236 243 241
281 288 283 270 261 264 258 245 247 245 252 236 241 266 276 283 288 293 302 267 247 240 233 238 243 254 257 257 256 261 259 258 245 239 222 206 192 195 214 226 232 235 239
275 283 287 284 280 272 259 252 253 259 276 230 263 279 276 293 298 292 305 295 253 243 219 229 246 255 253 253 252 249 251 250 258 246 249 205 221 228 232 231 236 236 239
278 282 287 286 288 293 285 273 270 266 249 264 259 270 283 292 299 317 330 318 281 242 251 248 233 251 249 252 248 250 248 267 272 267 245 214 230 238 243 246 248 250 253
286 288 295 293 286 294 286 280 289 282 274 261 267 266 279 282 279 315 328 303 286 220 216 235 248 251 244 243 241 239 269 268 270 260 256 259 255 250 251 256 255 255 258
287 290 297 303 298 292 282 281 289 326 275 231 250 262 264 271 269 284 302 296 282 258 253 258 262 260 260 258 246 251 261 268 267 266 261 260 258 258 257 259 261 263 262
281 280 281 299 289 280 277 276 271 290 261 226 235 244 251 264 259 271 274 269 263 251 246 228 248 237 217 214 242 272 270 274 267 263 265 270 270 266 264 262 262 264 263
274 274 278 289 283 279 276 266 255 255 258 221 223 224 238 250 254 259 255 251 246 242 241 240 245 249 255 254 255 259 267 272 275 270 264 265 267 262 259 262 266 267 268
276 278 282 276 276 277 274 257 229 242 231 205 213 221 225 232 242 244 245 247 254 259 260 262 265 269 272 272 277 274 270 271 274 274 275 270 273 277 255 262 272 271 271
270 273 278 271 282 291 242 233 231 219 204 199 198 201 210 219 229 241 244 253 259 261 262 267 271 273 274 275 277 275 276 278 278 277 276 275 274 273 271 270 271 272 271
272 267 261 274 276 264 233 221 196 198 196 195 193 199 210 225 236 241 251 257 260 265 271 274 276 277 278 275 274 274 275 274 273 273 274 275 275 274 273 273 274 274 273
268 264 266 267 248 241 229 213 201 211 200 199 201 203 215 230 232 242 255 267 275 278 280 283 284 283 280 281 284 286 284 282 280 278 277 276 274 272 272 272 271 270 269
259 254 253 238 207 222 196 196 191 192 201 202 207 211 221 233 242 258 267 278 286 284 281 280 285 287 284 285 289 290 289 287 285 283 282 278 275 274 274 272 270 271 272
236 227 233 223 193 181 190 188 181 185 186 202 209 214 238 255 264 269 274 276 279 281 285 296 297 296 297 298 297 301 303 303 303 302 299 295 292 289 284 281 278 275 274
181 192 191 201 177 168 176 181 178 175 190 190 205 226 248 265 271 280 283 285 293 298 302 298 308 316 311 312 315 317 313 310 309 307 302 296 291 287 283 281 280 278 277
181 185 174 145 150 155 156 165 157 172 189 201 221 249 264 271 278 283 289 296 301 302 301 306 314 324 325 326 321 316 317 316 321 330 331 321 307 293 284 280 280 280 277
174 207 216 175 164 157 129 121 116 213 254 251 265 276 283 285 291 298 303 312 302 296 305 317 327 329 330 328 325 326 322 317 318 329 339 341 336 319 300 290 288 287 285
101 107 117 94 81 82 97 130 150 146 202 250 282 291 296 310 307 305 308 308 293 305 306 301 310 318 321 323 319 315 317 318 322 328 335 344 348 347 335 327 319 312 312
62 67 74 85 87 80 88 123 136 248 263 277 290 306 310 302 307 309 305 300 302 292 293 294 302 311 312 315 316 312 311 308 317 329 333 339 341 343 345 348 346 348 329
53 60 74 92 104 46 265 277 271 265 292 307 295 299 308 309 311 304 302 298 300 288 292 289 299 307 308 310 309 305 306 314 322 321 323 327 328 330 332 334 335 332 326
64 44 12 313 278 278 282 283 278 277 294 305 307 315 313 308 312 308 303 296 282 285 285 291 299 301 303 304 302 301 307 312 318 317 317 319 320 320 318 317 319 319 319
353 296 280 280 278 293 328 354 344 331 322 310 310 320 318 312 306 306 295 286 288 293 289 289 295 298 295 295 296 300 302 304 312 314 312 311 312 314 313 310 310 312 313
327 289 239 188 148 93 344 350 351 341 319 299 292 296 306 310 312 306 300 284 282 288 297 305 302 300 299 296 296 295 296 299 302 303 299 297 306 307 310 309 309 311 312
321 241 181 129 105 116 340 340 315 311 318 309 336 354 345 330 316 314 301 294 296 302 306 306 297 295 305 296 293 294 301 300 304 305 305 298 294 290 296 300 305 313 309
97 104 100 90 112 106 59 46 33 5 340 324 315 318 316 322 300 306 309 305 306 305 307 309 309 292 295 289 287 287 287 295 299 297 295 296 290 286 293 294 301 302 304